Location: Unspecified
(0.0000°N, 0.0000°E)
Time: 09:25:55
(UTC+02:00)

BREEZE-M DEB (TANK) - Visible Passes

Search period start: 26 May 2017 00:00
Search period end: 05 June 2017 00:00
Orbit: 318 x 16329 km, 49.5° (Epoch: 25 May)

Date Brightness Start Highest point End Pass type
(mag) Time Alt. Az. Time Alt. Az. Time Alt. Az.
26 May 5.1 05:57:13 30° SW 06:11:20 67° WNW 06:18:03 10° NNE visible
26 May 7.9 22:08:09 10° WSW 01:05:02 25° SSE 01:41:53 10° ESE visible
27 May 5.5 06:37:15 20° WSW 06:50:23 37° WNW 06:56:41 10° N visible
27 May 7.6 23:19:05 10° SW 02:20:57 21° ESE 02:26:42 10° ESE visible
28 May 6.0 07:17:06 10° WSW 07:28:36 17° WNW 07:33:48 10° NW visible
28 May 8.5 17:54:57 10° NW 18:16:53 71° SW 20:51:43 10° SSE visible
29 May 7.1 00:55:19 10° SW 03:00:37 33° ESE 03:09:26 10° E visible
29 May 8.8 18:35:55 10° WNW 19:03:10 56° SW 21:47:52 10° SSE visible
30 May 6.7 02:11:31 10° SSW 03:40:09 48° SE 03:50:49 10° ENE visible
30 May 9.1 19:18:03 10° WNW 19:52:34 44° SW 22:42:05 11° SE visible
31 May 6.0 03:13:07 10° SSW 04:21:39 65° SE 04:31:14 10° NE visible
31 May 9.0 20:02:08 10° W 20:46:44 34° SW 23:20:01 18° SSE visible
01 Jun 5.4 04:09:17 10° SW 05:03:02 88° NW 05:10:58 10° NE visible
01 Jun 8.9 20:49:56 10° W 21:54:14 26° SSW 23:58:02 23° SSE visible
02 Jun 5.4 05:37:56 46° WSW 05:42:54 56° WNW 05:50:03 10° NNE visible
02 Jun 7.8 21:45:52 10° WSW 01:21:06 - E 00:36:08 27° SSE visible
03 Jun 5.9 06:17:00 28° W 06:21:32 31° WNW 06:28:17 10° N visible
03 Jun 7.4 23:00:57 10° SW 02:00:06 10° E 01:14:18 29° S visible
04 Jun 6.2 06:55:59 13° W 06:59:36 14° W 07:04:16 10° NW visible
04 Jun 8.5 17:27:09 10° NW 17:48:40 64° SW 20:22:24 10° SSE visible
